Dades meteomassalio
Diari Summary for Juny 10, 2017 Units:  Metric    English   Both
« Previous Day
Next Day »
Diari Semanal Mensual Anual Personalitzat
  Maxima: Minima: Mijana:
Temperatura: -17.8 °C -9 °C -4.2 °C
Rosada: -17.8 °C -10.4 °C -9.2 °C
Humitat: Humidity % 39 % 60 %
Velocitat del vent: 0 km/h 0 km/h 6.3 km/h
Racha vent: 0 km/h - -
Vent:- - East
Pressio: 0 hPa 34337.4 hPa -
Pluja: 0 mm    
Historical Graphs
 
 
Tabular Data for Juny 10, 2017
Time Temperature Dew Point Pressure Wind Wind Speed Wind Gust Humidity Rainfall Rate (Hourly) solar Conditions
-17.8 °C -17.8 °C 0 hPa Calm     Humidity % 0 mm SolarRadiationWatts/m^2 W/m2 Conditions
00:03 -5.9 °C -9.8 °C 34371.3 hPa Calm     64 % 0 mm 0.0 W/m2 CLR
00:08 -5.9 °C -9.9 °C 34371.3 hPa Calm     63 % 0 mm 0.0 W/m2 CLR
00:13 -5.9 °C -9.9 °C 34371.3 hPa Calm     63 % 0 mm 0.0 W/m2 CLR
00:18 -5.9 °C -9.8 °C 34371.3 hPa Calm     64 % 0 mm 0.0 W/m2 CLR
00:23 -6 °C -9.8 °C 34371.3 hPa Calm     65 % 0 mm 0.0 W/m2 CLR
00:28 -6.1 °C -9.8 °C 34371.3 hPa Calm     66 % 0 mm 0.0 W/m2 CLR
00:33 -6.2 °C -9.7 °C 34371.3 hPa Calm     67 % 0 mm 0.0 W/m2 CLR
00:38 -6.3 °C -9.8 °C 34371.3 hPa Calm     67 % 0 mm 0.0 W/m2 CLR
00:43 -6.4 °C -9.8 °C 34371.3 hPa Calm     68 % 0 mm 0.0 W/m2 CLR
00:48 -6.4 °C -9.7 °C 34371.3 hPa Calm     69 % 0 mm 0.0 W/m2 CLR
00:53 -6.4 °C -9.7 °C 34371.3 hPa Calm     69 % 0 mm 0.0 W/m2 CLR
00:58 -6.5 °C -9.8 °C 34371.3 hPa Calm     69 % 0 mm 0.0 W/m2 CLR
01:03 -6.6 °C -9.7 °C 34384.8 hPa Calm     70 % 0 mm 0.0 W/m2 CLR
01:08 -6.6 °C -9.8 °C 34384.8 hPa Calm     70 % 0 mm 0.0 W/m2 CLR
01:13 -6.6 °C -9.8 °C 34384.8 hPa Calm     70 % 0 mm 0.0 W/m2 CLR
01:18 -6.6 °C -9.8 °C 34384.8 hPa Calm     70 % 0 mm 0.0 W/m2 CLR
01:23 -6.6 °C -9.6 °C 34384.8 hPa Calm     71 % 0 mm 0.0 W/m2 CLR
01:28 -6.7 °C -9.4 °C 34384.8 hPa Calm     73 % 0 mm 0.0 W/m2 CLR
01:33 -6.7 °C -9.5 °C 34384.8 hPa ESE 9 km/h 9 km/h 73 % 0 mm 0.0 W/m2 CLR
01:38 -6.7 °C -9.4 °C 34384.8 hPa Calm     73 % 0 mm 0.0 W/m2 CLR
01:43 -6.7 °C -9.3 °C 34384.8 hPa Calm     74 % 0 mm 0.0 W/m2 CLR
01:44 -6.7 °C -9.3 °C 34384.8 hPa Calm     74 % 0 mm 0.0 W/m2 CLR
01:49 -6.8 °C -9.4 °C 34384.8 hPa Calm     74 % 0 mm 0.0 W/m2 CLR
01:54 -6.8 °C -9.3 °C 34395 hPa Calm     75 % 0 mm 0.0 W/m2 CLR
01:59 -6.8 °C -9.3 °C 34395 hPa Calm     76 % 0 mm 0.0 W/m2 CLR
02:04 -6.8 °C -9.2 °C 34395 hPa Calm     76 % 0 mm 0.0 W/m2 CLR
02:09 -6.8 °C -9.2 °C 34395 hPa Calm     76 % 0 mm 0.0 W/m2 CLR
02:14 -6.8 °C -9.2 °C 34395 hPa Calm     76 % 0 mm 0.0 W/m2 CLR
02:19 -6.9 °C -9.3 °C 34395 hPa Calm     76 % 0 mm 0.0 W/m2 CLR
02:24 -7 °C -9.4 °C 34395 hPa Calm     76 % 0 mm 0.0 W/m2 CLR
02:29 -7.1 °C -9.6 °C 34395 hPa Calm     76 % 0 mm 0.0 W/m2 CLR
02:34 -7.3 °C -9.6 °C 34395 hPa Calm     77 % 0 mm 0.0 W/m2 CLR
02:39 -7.3 °C -9.5 °C 34395 hPa Calm     78 % 0 mm 0.0 W/m2 CLR
02:44 -7.4 °C -9.6 °C 34395 hPa Calm     78 % 0 mm 0.0 W/m2 CLR
02:49 -7.4 °C -9.6 °C 34395 hPa Calm     79 % 0 mm 0.0 W/m2 CLR
02:54 -7.6 °C -9.5 °C 34395 hPa Calm     80 % 0 mm 0.0 W/m2 CLR
02:59 -7.6 °C -9.4 °C 34395 hPa Calm     81 % 0 mm 0.0 W/m2 CLR
03:04 -7.7 °C -9.5 °C 34395 hPa Calm     81 % 0 mm 0.0 W/m2 CLR
03:09 -7.7 °C -9.6 °C 34395 hPa Calm     81 % 0 mm 0.0 W/m2 CLR
03:14 -7.8 °C -9.7 °C 34395 hPa Calm     81 % 0 mm 0.0 W/m2 CLR
03:19 -7.8 °C -9.6 °C 34395 hPa Calm     82 % 0 mm 0.0 W/m2 CLR
03:24 -7.9 °C -9.6 °C 34395 hPa Calm     82 % 0 mm 0.0 W/m2 CLR
03:29 -7.9 °C -9.7 °C 34395 hPa Calm     82 % 0 mm 0.0 W/m2 CLR
03:34 -8 °C -9.7 °C 34395 hPa Calm     82 % 0 mm 0.0 W/m2 CLR
03:39 -8.1 °C -9.8 °C 34395 hPa Calm     82 % 0 mm 0.0 W/m2 CLR
03:44 -8.1 °C -9.8 °C 34395 hPa Calm     83 % 0 mm 0.0 W/m2 CLR
03:49 -8.2 °C -9.8 °C 34395 hPa Calm     83 % 0 mm 0.0 W/m2 CLR
03:54 -8.2 °C -9.8 °C 34395 hPa Calm     83 % 0 mm 0.0 W/m2 CLR
03:59 -8.2 °C -9.7 °C 34395 hPa Calm     84 % 0 mm 0.0 W/m2 CLR
04:04 -8.3 °C -9.8 °C 34395 hPa Calm     84 % 0 mm 0.0 W/m2 CLR
04:10 -8.3 °C -9.8 °C 34395 hPa Calm     85 % 0 mm 0.0 W/m2 CLR
04:15 -8.3 °C -9.8 °C 34395 hPa Calm     85 % 0 mm 0.0 W/m2 CLR
04:20 -8.4 °C -9.8 °C 34395 hPa Calm     85 % 0 mm 0.0 W/m2 CLR
04:25 -8.4 °C -9.8 °C 34395 hPa Calm     85 % 0 mm 0.0 W/m2 CLR
04:30 -8.4 °C -9.8 °C 34395 hPa Calm     85 % 0 mm 0.0 W/m2 CLR
04:35 -8.4 °C -9.8 °C 34395 hPa Calm     85 % 0 mm 0.0 W/m2 CLR
04:40 -8.4 °C -9.7 °C 34395 hPa Calm     86 % 0 mm 0.0 W/m2 CLR
04:45 -8.5 °C -9.8 °C 34395 hPa Calm     86 % 0 mm 0.0 W/m2 CLR
04:50 -8.5 °C -9.8 °C 34395 hPa Calm     86 % 0 mm 0.0 W/m2 CLR
04:55 -8.5 °C -9.8 °C 34395 hPa Calm     86 % 0 mm 0.0 W/m2 CLR
05:00 -8.5 °C -9.8 °C 34395 hPa Calm     86 % 0 mm 0.0 W/m2 CLR
05:05 -8.6 °C -9.9 °C 34405.1 hPa Calm     86 % 0 mm 0.0 W/m2 CLR
05:10 -8.6 °C -10.1 °C 34405.1 hPa Calm     85 % 0 mm 0.0 W/m2 CLR
05:15 -8.7 °C -9.9 °C 34405.1 hPa Calm     86 % 0 mm 0.0 W/m2 CLR
05:20 -8.7 °C -10.1 °C 34405.1 hPa West 3.1 km/h   86 % 0 mm 0.0 W/m2 CLR
05:25 -8.8 °C -10.1 °C 34405.1 hPa Calm     86 % 0 mm 0.0 W/m2 CLR
05:30 -8.8 °C -10.1 °C 34395 hPa Calm     86 % 0 mm 0.0 W/m2 CLR
05:35 -8.8 °C -9.9 °C 34405.1 hPa Calm     87 % 0 mm 0.0 W/m2 CLR
05:40 -8.8 °C -10.1 °C 34405.1 hPa Calm     86 % 0 mm 0.0 W/m2 CLR
05:45 -8.8 °C -10.1 °C 34405.1 hPa Calm     86 % 0 mm 0.0 W/m2 CLR
05:50 -8.8 °C -10.1 °C 34405.1 hPa Calm     86 % 0 mm 0.0 W/m2 CLR
05:55 -8.8 °C -10.1 °C 34405.1 hPa Calm     86 % 0 mm 0.0 W/m2 CLR
06:00 -8.8 °C -10.1 °C 34405.1 hPa Calm     86 % 0 mm 0.0 W/m2 CLR
06:05 -8.9 °C -10.2 °C 34405.1 hPa Calm     86 % 0 mm 0.0 W/m2 CLR
06:10 -8.9 °C -10.2 °C 34418.7 hPa Calm     86 % 0 mm 0.0 W/m2 CLR
06:15 -8.9 °C -10.2 °C 34418.7 hPa Calm     86 % 0 mm 0.0 W/m2 CLR
06:16 -8.9 °C -10.2 °C 34418.7 hPa Calm     86 % 0 mm 0.0 W/m2 OVC
06:21 -8.9 °C -10.2 °C 34418.7 hPa Calm     86 % 0 mm 0.0 W/m2 OVC
06:26 -8.9 °C -10.2 °C 34418.7 hPa Calm     86 % 0 mm 0.0 W/m2 OVC
06:31 -9 °C -10.3 °C 34418.7 hPa Calm     86 % 0 mm 5.0 W/m2 OVC
06:36 -9 °C -10.3 °C 34418.7 hPa Calm     86 % 0 mm 9.0 W/m2 BKN
06:41 -9 °C -10.2 °C 34428.8 hPa Calm     87 % 0 mm 14.0 W/m2 BKN
06:46 -9 °C -10.3 °C 34428.8 hPa Calm     86 % 0 mm 18.0 W/m2 BKN
06:51 -9 °C -10.3 °C 34428.8 hPa Calm     86 % 0 mm 25.0 W/m2 BKN
06:56 -9 °C -10.3 °C 34428.8 hPa Calm     86 % 0 mm 30.0 W/m2 BKN
07:01 -9 °C -10.2 °C 34428.8 hPa Calm     87 % 0 mm 35.0 W/m2 BKN
07:06 -8.9 °C -10.2 °C 34428.8 hPa Calm     87 % 0 mm 40.0 W/m2 BKN
07:11 -8.9 °C -10.1 °C 34428.8 hPa Calm     87 % 0 mm 47.0 W/m2 SCT
07:16 -8.9 °C -10.1 °C 34442.4 hPa Calm     87 % 0 mm 62.0 W/m2 SCT
07:21 -8.8 °C -10 °C 34442.4 hPa Calm     87 % 0 mm 70.0 W/m2 FEW
07:26 -8.7 °C -9.9 °C 34442.4 hPa Calm     87 % 0 mm 77.0 W/m2 FEW
07:31 -8.6 °C -9.9 °C 34442.4 hPa Calm     86 % 0 mm 91.0 W/m2 FEW
07:37 -8.5 °C -9.8 °C 34442.4 hPa Calm     86 % 0 mm 102.0 W/m2 CLR
07:42 -8.4 °C -9.7 °C 34442.4 hPa Calm     86 % 0 mm 109.0 W/m2 CLR
07:47 -8.2 °C -9.6 °C 34442.4 hPa Calm     85 % 0 mm 125.0 W/m2 CLR
07:52 -8.1 °C -9.6 °C 34442.4 hPa Calm     84 % 0 mm 118.0 W/m2 CLR
07:57 -7.9 °C -9.6 °C 34442.4 hPa Calm     83 % 0 mm 116.0 W/m2 CLR
08:02 -7.9 °C -9.5 °C 34442.4 hPa Calm     83 % 0 mm 128.0 W/m2 CLR
08:07 -7.7 °C -9.2 °C 34452.6 hPa SSW 6 km/h 6 km/h 84 % 0 mm 151.0 W/m2 CLR
08:12 -7.6 °C -9.2 °C 34452.6 hPa SW 9 km/h 9 km/h 83 % 0 mm 188.0 W/m2 CLR
08:17 -7.3 °C -9 °C 34452.6 hPa WSW 11.9 km/h 11.9 km/h 83 % 0 mm 207.0 W/m2 CLR
08:22 -7.2 °C -9 °C 34452.6 hPa WSW 9 km/h   82 % 0 mm 229.0 W/m2 CLR
08:27 -7.1 °C -8.8 °C 34452.6 hPa Calm     82 % 0 mm 251.0 W/m2 CLR
08:32 -6.9 °C -8.7 °C 34452.6 hPa Calm     81 % 0 mm 267.0 W/m2 CLR
08:33 -6.8 °C -8.7 °C 34452.6 hPa Calm     81 % 0 mm 269.0 W/m2 CLR
08:38 -6.6 °C -8.7 °C 34452.6 hPa Calm     79 % 0 mm 274.0 W/m2 CLR
08:43 -6.4 °C -8.7 °C 34452.6 hPa Calm     77 % 0 mm 292.0 W/m2 CLR
08:48 -6.2 °C -8.7 °C 34452.6 hPa Calm     76 % 0 mm 302.0 W/m2 CLR
08:53 -6.1 °C -8.6 °C 34452.6 hPa Calm     75 % 0 mm 323.0 W/m2 CLR
08:58 -5.9 °C -8.6 °C 34452.6 hPa Calm     74 % 0 mm 339.0 W/m2 CLR
09:03 -5.8 °C -8.4 °C 34452.6 hPa Calm     74 % 0 mm 348.0 W/m2 CLR
09:08 -5.7 °C -8.4 °C 34452.6 hPa Calm     74 % 0 mm 369.0 W/m2 CLR
09:13 -5.6 °C -8.4 °C 34452.6 hPa Calm     73 % 0 mm 350.0 W/m2 CLR
09:18 -5.5 °C -8.4 °C 34452.6 hPa Calm     72 % 0 mm 367.0 W/m2 CLR
09:23 -5.5 °C -8.6 °C 34452.6 hPa Calm     71 % 0 mm 353.0 W/m2 CLR
09:28 -5.4 °C -8.3 °C 34452.6 hPa Calm     72 % 0 mm 396.0 W/m2 CLR
09:33 -5.3 °C -8.3 °C 34452.6 hPa Calm     71 % 0 mm 403.0 W/m2 CLR
09:38 -5.2 °C -8.6 °C 34452.6 hPa Calm     69 % 0 mm 461.0 W/m2 CLR
09:43 -5.1 °C -8.4 °C 34452.6 hPa Calm     69 % 0 mm 485.0 W/m2 CLR
09:48 -4.9 °C -8.3 °C 34452.6 hPa Calm     68 % 0 mm 494.0 W/m2 CLR
09:53 -4.8 °C -8.4 °C 34452.6 hPa SW 31.1 km/h 31.1 km/h 67 % 0 mm 510.0 W/m2 CLR
09:58 -4.8 °C -8.5 °C 34452.6 hPa Calm     66 % 0 mm 504.0 W/m2 CLR
10:03 -4.7 °C -8.4 °C 34452.6 hPa Calm     66 % 0 mm 524.0 W/m2 CLR
10:08 -4.6 °C -8.4 °C 34452.6 hPa Calm     65 % 0 mm 541.0 W/m2 CLR
10:13 -4.4 °C -8.3 °C 34452.6 hPa Calm     65 % 0 mm 561.0 W/m2 CLR
10:29 -4.2 °C -8.5 °C 34452.6 hPa Calm     62 % 0 mm 577.0 W/m2 CLR
10:34 -4.1 °C -8.4 °C 34452.6 hPa Calm     62 % 0 mm 582.0 W/m2 CLR
10:39 -4 °C -8.6 °C 34452.6 hPa Calm     60 % 0 mm 615.0 W/m2 CLR
10:44 -3.9 °C -8.8 °C 34452.6 hPa Calm     58 % 0 mm 636.0 W/m2 CLR
10:49 -3.9 °C -8.7 °C 34452.6 hPa Calm     59 % 0 mm 640.0 W/m2 CLR
10:54 -3.8 °C -8.7 °C 34452.6 hPa Calm     58 % 0 mm 656.0 W/m2 CLR
10:59 -3.7 °C -8.8 °C 34452.6 hPa Calm     57 % 0 mm 659.0 W/m2 CLR
11:00 -3.7 °C -8.9 °C 34452.6 hPa East 5.1 km/h 5.1 km/h 56 % 0 mm 661.0 W/m2 CLR
11:10 -3.7 °C -8.8 °C 34452.6 hPa Calm     57 % 0 mm 694.0 W/m2 CLR
11:15 -3.4 °C -9.2 °C 34452.6 hPa Calm     53 % 0 mm 700.0 W/m2 CLR
11:20 -3.3 °C -9.2 °C 34452.6 hPa ENE 3.1 km/h   52 % 0 mm 708.0 W/m2 CLR
11:25 -3.2 °C -9.4 °C 34452.6 hPa Calm     50 % 0 mm 729.0 W/m2 CLR
11:30 -3.2 °C -10.3 °C 34452.6 hPa Calm     45 % 0 mm 744.0 W/m2 CLR
11:35 -3.1 °C -10.4 °C 34442.4 hPa Calm     44 % 0 mm 752.0 W/m2 CLR
11:40 -2.9 °C -9.9 °C 34452.6 hPa Calm     46 % 0 mm 761.0 W/m2 CLR
11:45 -2.7 °C -9.5 °C 34452.6 hPa Calm     47 % 0 mm 775.0 W/m2 CLR
11:50 -2.6 °C -9.6 °C 34442.4 hPa Calm     46 % 0 mm 784.0 W/m2 CLR
11:55 -2.6 °C -9.4 °C 34452.6 hPa Calm     47 % 0 mm 793.0 W/m2 CLR
12:00 -2.4 °C -8.8 °C 34442.4 hPa Calm     50 % 0 mm 802.0 W/m2 CLR
12:05 -2.4 °C -8.8 °C 34442.4 hPa Calm     49 % 0 mm 810.0 W/m2 CLR
12:10 -2.2 °C -8.6 °C 34442.4 hPa NE 20.8 km/h 20.8 km/h 50 % 0 mm 810.0 W/m2 CLR
12:20 -2.2 °C -8.3 °C 34442.4 hPa NNE 11.9 km/h 11.9 km/h 51 % 0 mm 830.0 W/m2 CLR
12:25 -2.1 °C -8.4 °C 34442.4 hPa NE 12.9 km/h 12.9 km/h 50 % 0 mm 838.0 W/m2 CLR
12:30 -2 °C -8.5 °C 34442.4 hPa NE 23.8 km/h 23.8 km/h 49 % 0 mm 844.0 W/m2 CLR
12:35 -2 °C -9.1 °C 34442.4 hPa NE 20.9 km/h 20.9 km/h 46 % 0 mm 846.0 W/m2 CLR
12:40 -2 °C -8.7 °C 34428.8 hPa Calm     48 % 0 mm 854.0 W/m2 CLR
12:45 -1.8 °C -9.1 °C 34428.8 hPa NE 23.3 km/h 23.3 km/h 45 % 0 mm 870.0 W/m2 CLR
12:50 -1.8 °C -9.1 °C 34428.8 hPa NNW 20.9 km/h 20.9 km/h 45 % 0 mm 872.0 W/m2 CLR
12:55 -1.7 °C -9.2 °C 34428.8 hPa NNW 9 km/h 9 km/h 44 % 0 mm 884.0 W/m2 CLR
13:00 -1.6 °C -9.1 °C 34428.8 hPa NE 18.2 km/h 18.2 km/h 44 % 0 mm 886.0 W/m2 CLR
13:05 -1.5 °C -9 °C 34428.8 hPa NE 25.9 km/h 25.9 km/h 44 % 0 mm 888.0 W/m2 CLR
13:10 -1.4 °C -8.9 °C 34428.8 hPa NNE 15 km/h 15 km/h 44 % 0 mm 893.0 W/m2 CLR
13:15 -1.4 °C -8.8 °C 34428.8 hPa North 11.9 km/h 11.9 km/h 45 % 0 mm 898.0 W/m2 CLR
13:20 -1.4 °C -8.5 °C 34428.8 hPa ENE 17.9 km/h 17.9 km/h 46 % 0 mm 905.0 W/m2 CLR
13:25 -1.4 °C -8.7 °C 34418.7 hPa NNE 17.9 km/h 17.9 km/h 45 % 0 mm 909.0 W/m2 CLR
13:30 -1.3 °C -8.6 °C 34418.7 hPa NE 23.8 km/h 23.8 km/h 45 % 0 mm 911.0 W/m2 CLR
13:35 -1.2 °C -8.9 °C 34418.7 hPa NNE 20.9 km/h 20.9 km/h 43 % 0 mm 916.0 W/m2 CLR
13:40 -1.2 °C -8.9 °C 34418.7 hPa Calm     43 % 0 mm 911.0 W/m2 CLR
13:45 -1 °C -8.9 °C 34418.7 hPa ENE 17.9 km/h 17.9 km/h 42 % 0 mm 911.0 W/m2 CLR
13:50 -0.8 °C -9 °C 34418.7 hPa NNE 15 km/h 15 km/h 41 % 0 mm 916.0 W/m2 CLR
13:55 -0.8 °C -9 °C 34418.7 hPa NNE 9 km/h 9 km/h 41 % 0 mm 926.0 W/m2 CLR
14:00 -0.7 °C -8.9 °C 34405.1 hPa NE 20.8 km/h 20.8 km/h 41 % 0 mm 909.0 W/m2 CLR
14:05 -0.7 °C -8.7 °C 34405.1 hPa NE 23.8 km/h 23.8 km/h 42 % 0 mm 902.0 W/m2 CLR
14:10 -0.6 °C -8.6 °C 34405.1 hPa ENE 15 km/h 15 km/h 42 % 0 mm 898.0 W/m2 CLR
14:15 -0.6 °C -8.6 °C 34405.1 hPa NNE 11.9 km/h 11.9 km/h 42 % 0 mm 882.0 W/m2 CLR
14:20 -0.4 °C -8.5 °C 34405.1 hPa ESE 23.8 km/h 23.8 km/h 42 % 0 mm 875.0 W/m2 CLR
14:25 -0.6 °C -8.4 °C 34395 hPa ESE 17.9 km/h 17.9 km/h 43 % 0 mm 835.0 W/m2 CLR
14:30 -0.6 °C -8.4 °C 34395 hPa East 9 km/h 9 km/h 43 % 0 mm 863.0 W/m2 CLR
14:35 -0.6 °C -8.6 °C 34395 hPa ENE 15 km/h 15 km/h 42 % 0 mm 867.0 W/m2 CLR
14:40 -0.6 °C -8.8 °C 34395 hPa East 15 km/h 15 km/h 41 % 0 mm 831.0 W/m2 CLR
14:45 -0.4 °C -9.1 °C 34395 hPa ESE 18.2 km/h 18.2 km/h 39 % 0 mm 854.0 W/m2 CLR
14:50 -0.5 °C -8.9 °C 34395 hPa NE 12.9 km/h 12.9 km/h 40 % 0 mm 865.0 W/m2 CLR
14:55 -0.4 °C -9.1 °C 34395 hPa East 11.9 km/h 11.9 km/h 39 % 0 mm 847.0 W/m2 CLR
15:00 -0.5 °C -9.2 °C 34384.8 hPa ENE 23.8 km/h 23.8 km/h 39 % 0 mm 872.0 W/m2 CLR
15:05 -0.4 °C -8.9 °C 34384.8 hPa East 15 km/h 15 km/h 40 % 0 mm 888.0 W/m2 CLR
15:10 -0.4 °C -9.1 °C 34384.8 hPa Calm     39 % 0 mm 886.0 W/m2 CLR
15:15 -0.2 °C -8.4 °C 34384.8 hPa ESE 18.2 km/h 18.2 km/h 41 % 0 mm 877.0 W/m2 CLR
15:20 -0.2 °C -8.2 °C 34384.8 hPa ENE 15 km/h 15 km/h 42 % 0 mm 868.0 W/m2 CLR
15:21 -0.2 °C -8.2 °C 34384.8 hPa NE 15 km/h 15 km/h 42 % 0 mm 868.0 W/m2 CLR
15:26 -0.1 °C -8.4 °C 34384.8 hPa ESE 23.8 km/h 23.8 km/h 41 % 0 mm 865.0 W/m2 CLR
15:31 -0.1 °C -8.3 °C 34384.8 hPa NNE 23.8 km/h 23.8 km/h 41 % 0 mm 856.0 W/m2 CLR
15:36 -0.2 °C -8.2 °C 34384.8 hPa ENE 7.7 km/h 7.7 km/h 42 % 0 mm 849.0 W/m2 CLR
15:41 -0.1 °C -8.1 °C 34371.3 hPa NE 23.8 km/h 23.8 km/h 42 % 0 mm 846.0 W/m2 CLR
15:46 0.2 °C -8.4 °C 34371.3 hPa ESE 5.1 km/h   40 % 0 mm 835.0 W/m2 CLR
15:51 0.2 °C -8.6 °C 34371.3 hPa ENE 7.7 km/h 7.7 km/h 39 % 0 mm 828.0 W/m2 CLR
15:56 0.2 °C -8.2 °C 34371.3 hPa ESE 18.2 km/h 18.2 km/h 41 % 0 mm 821.0 W/m2 CLR
16:01 0 °C -8.5 °C 34371.3 hPa ESE 15 km/h 15 km/h 40 % 0 mm 814.0 W/m2 CLR
16:06 0.1 °C -8.4 °C 34371.3 hPa North 15 km/h 15 km/h 40 % 0 mm 802.0 W/m2 CLR
16:11 0.2 °C -8.3 °C 34371.3 hPa North 29.8 km/h 29.8 km/h 40 % 0 mm 793.0 W/m2 CLR
16:16 0.3 °C -8.4 °C 34371.3 hPa NNE 15 km/h 15 km/h 39 % 0 mm 788.0 W/m2 CLR
16:21 0.4 °C -8.4 °C 34361.1 hPa ENE 15 km/h 15 km/h 39 % 0 mm 773.0 W/m2 CLR
16:26 0.2 °C -8.5 °C 34361.1 hPa Calm     39 % 0 mm 766.0 W/m2 CLR
16:31 0.2 °C -8.5 °C 34361.1 hPa SE 20.9 km/h 20.9 km/h 39 % 0 mm 754.0 W/m2 CLR
16:36 0.2 °C -8.3 °C 34361.1 hPa ESE 15 km/h 15 km/h 40 % 0 mm 745.0 W/m2 CLR
16:46 0.1 °C -8.4 °C 34361.1 hPa ESE 11.9 km/h 11.9 km/h 40 % 0 mm 721.0 W/m2 CLR
16:56 0.1 °C -8.4 °C 34361.1 hPa ESE 23.3 km/h 23.3 km/h 40 % 0 mm 701.0 W/m2 CLR
17:01 0.1 °C -8.4 °C 34347.6 hPa East 23.8 km/h 23.8 km/h 40 % 0 mm 691.0 W/m2 CLR
17:06 0.1 °C -8.6 °C 34347.6 hPa East 29.8 km/h 29.8 km/h 39 % 0 mm 677.0 W/m2 CLR
17:11 0.1 °C -8.4 °C 34347.6 hPa ENE 17.9 km/h 17.9 km/h 40 % 0 mm 664.0 W/m2 CLR
17:16 0.2 °C -8.3 °C 34347.6 hPa East 20.9 km/h 20.9 km/h 40 % 0 mm 654.0 W/m2 CLR
17:21 0.2 °C -8.5 °C 34347.6 hPa ENE 26.9 km/h 26.9 km/h 39 % 0 mm 640.0 W/m2 CLR
17:26 0.2 °C -8.5 °C 34347.6 hPa East 11.9 km/h 11.9 km/h 39 % 0 mm 624.0 W/m2 CLR
17:31 0.2 °C -8.6 °C 34347.6 hPa East 17.9 km/h 17.9 km/h 39 % 0 mm 612.0 W/m2 CLR
17:36 0.2 °C -8.5 °C 34347.6 hPa East 20.9 km/h 20.9 km/h 39 % 0 mm 599.0 W/m2 CLR
17:46 0.2 °C -8.5 °C 34347.6 hPa ENE 15 km/h 15 km/h 39 % 0 mm 570.0 W/m2 CLR
17:51 0.2 °C -8.3 °C 34347.6 hPa East 20.9 km/h 20.9 km/h 40 % 0 mm 561.0 W/m2 CLR
17:56 0.2 °C -8.6 °C 34347.6 hPa NE 9 km/h 9 km/h 39 % 0 mm 547.0 W/m2 CLR
18:01 0.2 °C -8.4 °C 34347.6 hPa ESE 23.8 km/h 23.8 km/h 40 % 0 mm 536.0 W/m2 CLR
18:06 0.1 °C -8.4 °C 34347.6 hPa ESE 15.6 km/h 15.6 km/h 40 % 0 mm 522.0 W/m2 CLR
18:11 0.1 °C -8.7 °C 34347.6 hPa ESE 23.8 km/h 23.8 km/h 39 % 0 mm 504.0 W/m2 CLR
18:16 0.1 °C -8.4 °C 34337.4 hPa SE 23.8 km/h 23.8 km/h 40 % 0 mm 489.0 W/m2 CLR
18:21 -0.1 °C -8.6 °C 34347.6 hPa ESE 18.2 km/h 18.2 km/h 40 % 0 mm 476.0 W/m2 CLR
18:26 -0.1 °C -8.8 °C 34337.4 hPa East 26.9 km/h 26.9 km/h 39 % 0 mm 462.0 W/m2 CLR
18:31 -0.1 °C -8.8 °C 34337.4 hPa ESE 25.9 km/h 25.9 km/h 39 % 0 mm 452.0 W/m2 CLR
18:36 -0.2 °C -8.9 °C 34337.4 hPa ESE 26.9 km/h 26.9 km/h 39 % 0 mm 431.0 W/m2 CLR
18:41 -0.3 °C -8.7 °C 34337.4 hPa East 18.2 km/h 18.2 km/h 40 % 0 mm 415.0 W/m2 CLR
18:46 -0.3 °C -8.8 °C 34337.4 hPa East 26.9 km/h 26.9 km/h 40 % 0 mm 401.0 W/m2 CLR
18:51 -0.4 °C -8.8 °C 34337.4 hPa ESE 29.8 km/h 29.8 km/h 40 % 0 mm 387.0 W/m2 CLR
18:56 -0.4 °C -8.9 °C 34337.4 hPa East 20.9 km/h 20.9 km/h 40 % 0 mm 369.0 W/m2 CLR
19:01 -0.4 °C -8.9 °C 34337.4 hPa ESE 20.9 km/h 20.9 km/h 40 % 0 mm 355.0 W/m2 CLR
19:06 -0.5 °C -8.9 °C 34337.4 hPa ESE 23.8 km/h 23.8 km/h 40 % 0 mm 341.0 W/m2 CLR
19:11 -0.5 °C -8.7 °C 34337.4 hPa East 20.9 km/h 20.9 km/h 41 % 0 mm 325.0 W/m2 CLR
19:16 -0.6 °C -9 °C 34337.4 hPa East 18.2 km/h 18.2 km/h 40 % 0 mm 309.0 W/m2 CLR
19:21 -0.7 °C -9.1 °C 34337.4 hPa East 17.9 km/h 17.9 km/h 40 % 0 mm 294.0 W/m2 CLR
19:26 -0.7 °C -8.9 °C 34337.4 hPa East 9 km/h 9 km/h 41 % 0 mm 279.0 W/m2 CLR
19:31 -0.7 °C -8.9 °C 34337.4 hPa ESE 17.9 km/h 17.9 km/h 41 % 0 mm 264.0 W/m2 CLR
19:36 -0.8 °C -9 °C 34337.4 hPa ESE 11.9 km/h 11.9 km/h 41 % 0 mm 250.0 W/m2 CLR
19:41 -0.9 °C -9.1 °C 34337.4 hPa ENE 9 km/h 9 km/h 41 % 0 mm 232.0 W/m2 CLR
19:46 -0.9 °C -9.1 °C 34337.4 hPa East 10.3 km/h 10.3 km/h 41 % 0 mm 218.0 W/m2 CLR
19:51 -1.1 °C -9.2 °C 34337.4 hPa East 9 km/h 9 km/h 41 % 0 mm 202.0 W/m2 CLR
19:56 -1.1 °C -9.3 °C 34337.4 hPa Calm     41 % 0 mm 185.0 W/m2 CLR
20:01 -1.2 °C -9.1 °C 34347.6 hPa Calm     42 % 0 mm 165.0 W/m2 CLR
20:06 -1.2 °C -9.1 °C 34347.6 hPa ESE 11.9 km/h 11.9 km/h 42 % 0 mm 149.0 W/m2 CLR
20:11 -1.2 °C -9.1 °C 34347.6 hPa East 15.6 km/h 15.6 km/h 42 % 0 mm 134.0 W/m2 CLR
20:14 -1.2 °C -9.1 °C 34337.4 hPa East 9 km/h 9 km/h 42 % 0 mm 125.0 W/m2 CLR
20:19 -1.2 °C -9.2 °C 34347.6 hPa ESE 12.9 km/h 12.9 km/h 42 % 0 mm 109.0 W/m2 CLR
20:24 -1.3 °C -9.2 °C 34347.6 hPa Calm     42 % 0 mm 95.0 W/m2 CLR
20:29 -1.3 °C -9.3 °C 34347.6 hPa SE 11.9 km/h 11.9 km/h 42 % 0 mm 83.0 W/m2 CLR
20:35 -1.4 °C -9.2 °C 34347.6 hPa Calm     43 % 0 mm 70.0 W/m2 FEW
20:40 -1.5 °C -9.2 °C 34347.6 hPa Calm     43 % 0 mm 56.0 W/m2 SCT
20:45 -1.6 °C -9.1 °C 34347.6 hPa East 9 km/h 9 km/h 44 % 0 mm 30.0 W/m2 BKN
20:50 -1.7 °C -9.2 °C 34347.6 hPa East 11.9 km/h 11.9 km/h 44 % 0 mm 39.0 W/m2 BKN
20:54 -1.8 °C -9.3 °C 34347.6 hPa East 9 km/h 9 km/h 44 % 0 mm 30.0 W/m2 BKN
21:00 -2 °C -9.5 °C 34347.6 hPa ESE 15 km/h 15 km/h 44 % 0 mm 25.0 W/m2 BKN
21:05 -2.2 °C -9.4 °C 34347.6 hPa East 3.1 km/h 3.1 km/h 45 % 0 mm 18.0 W/m2 BKN
21:10 -2.3 °C -9.6 °C 34347.6 hPa ESE 9 km/h 9 km/h 45 % 0 mm 14.0 W/m2 BKN
21:15 -2.4 °C -9.5 °C 34347.6 hPa Calm     46 % 0 mm 12.0 W/m2 BKN
21:20 -2.6 °C -9.6 °C 34347.6 hPa Calm     46 % 0 mm 11.0 W/m2 BKN
21:25 -2.7 °C -9.5 °C 34347.6 hPa Calm     47 % 0 mm 7.0 W/m2 BKN
21:30 -2.7 °C -9.6 °C 34347.6 hPa Calm     47 % 0 mm 5.0 W/m2 OVC
21:35 -2.8 °C -9.6 °C 34361.1 hPa Calm     47 % 0 mm 0.0 W/m2 OVC
21:40 -2.9 °C -9.5 °C 34347.6 hPa Calm     48 % 0 mm 0.0 W/m2 OVC
21:45 -2.9 °C -9.6 °C 34361.1 hPa Calm     48 % 0 mm 0.0 W/m2 CLR
21:50 -2.9 °C -9.6 °C 34361.1 hPa Calm     48 % 0 mm 0.0 W/m2 CLR
21:55 -3.1 °C -9.3 °C 34361.1 hPa Calm     50 % 0 mm 0.0 W/m2 CLR
22:00 -3.2 °C -9.4 °C 34361.1 hPa Calm     50 % 0 mm 0.0 W/m2 CLR
22:05 -3.3 °C -9.4 °C 34361.1 hPa Calm     51 % 0 mm 0.0 W/m2 CLR
22:10 -3.4 °C -9.5 °C 34361.1 hPa Calm     51 % 0 mm 0.0 W/m2 CLR
22:15 -3.6 °C -9.4 °C 34361.1 hPa Calm     52 % 0 mm 0.0 W/m2 CLR
22:20 -3.6 °C -9.5 °C 34371.3 hPa Calm     52 % 0 mm 0.0 W/m2 CLR
22:25 -3.7 °C -9.4 °C 34371.3 hPa Calm     53 % 0 mm 0.0 W/m2 CLR
22:30 -3.7 °C -9.4 °C 34371.3 hPa Calm     53 % 0 mm 0.0 W/m2 CLR
22:35 -3.8 °C -9.3 °C 34371.3 hPa Calm     54 % 0 mm 0.0 W/m2 CLR
22:40 -3.9 °C -9.4 °C 34371.3 hPa Calm     54 % 0 mm 0.0 W/m2 CLR
22:45 -3.9 °C -9.2 °C 34371.3 hPa Calm     56 % 0 mm 0.0 W/m2 CLR
22:50 -4.1 °C -9.1 °C 34384.8 hPa Calm     57 % 0 mm 0.0 W/m2 CLR
22:55 -4.2 °C -9.1 °C 34384.8 hPa Calm     58 % 0 mm 0.0 W/m2 CLR
23:00 -4.3 °C -9 °C 34384.8 hPa Calm     59 % 0 mm 0.0 W/m2 CLR
23:05 -4.4 °C -9.1 °C 34384.8 hPa Calm     59 % 0 mm 0.0 W/m2 CLR
23:10 -4.5 °C -8.9 °C 34384.8 hPa Calm     61 % 0 mm 0.0 W/m2 CLR
23:15 -4.6 °C -9 °C 34384.8 hPa Calm     61 % 0 mm 0.0 W/m2 CLR
23:20 -4.7 °C -8.8 °C 34384.8 hPa Calm     63 % 0 mm 0.0 W/m2 CLR
23:25 -4.8 °C -8.8 °C 34384.8 hPa Calm     64 % 0 mm 0.0 W/m2 CLR
23:35 -4.9 °C -8.8 °C 34384.8 hPa Calm     65 % 0 mm 0.0 W/m2 CLR
23:40 -5 °C -9 °C 34384.8 hPa Calm     64 % 0 mm 0.0 W/m2 CLR
23:45 -5.1 °C -9.3 °C 34395 hPa Calm     62 % 0 mm 0.0 W/m2 CLR
23:50 -5.1 °C -9.2 °C 34384.8 hPa Calm     63 % 0 mm 0.0 W/m2 CLR
23:55 -5.1 °C -8.9 °C 34395 hPa Calm     65 % 0 mm 0.0 W/m2 CLR
Lo Temps de Massalio
Compliments of Weather Underground - 1.25 mb